This is the latest recevied weather packets stored in our database for station/object W8MRL. If no packets are shown the sender has not sent any weather packets the latest 10 day(s).
| Time | Temp. | Humidity | Pressure | Rain* | Wind** | Luminosity | Snow |
|---|---|---|---|---|---|---|---|
| 1777293954 | 12.22° C | 87% | 1020.4 hPa | 0 mm | - | - | - |
| 1777293048 | 11.67° C | 89% | 1020.4 hPa | 0 mm | - | - | - |
| 1777292148 | 11.11° C | 91% | 1020.5 hPa | 0 mm | - | - | - |
| 1777291247 | 10.56° C | 94% | 1020.7 hPa | 0 mm | - | - | - |
| 1777290352 | 9.44° C | 95% | 1020.6 hPa | 0 mm | - | - | - |
| 1777289446 | 9.44° C | 95% | 1020.7 hPa | 0 mm | - | - | - |
| 1777288545 | 8.89° C | 95% | 1020.7 hPa | 0 mm | - | - | - |
| 1777287657 | 8.33° C | 95% | 1020.6 hPa | 0 mm | - | - | - |
| 1777286743 | 8.33° C | 95% | 1020.5 hPa | 0 mm | - | - | - |
| 1777285842 | 8.33° C | 95% | 1020.5 hPa | 0 mm | - | - | - |
| 1777284943 | 8.33° C | 94% | 1020.7 hPa | 0 mm | - | - | - |
| 1777284042 | 7.78° C | 94% | 1021 hPa | 0 mm | - | - | - |
| 1777283138 | 8.33° C | 93% | 1021.2 hPa | 0 mm | - | - | - |
| 1777282237 | 8.33° C | 94% | 1021.3 hPa | 0 mm | - | - | - |
| 1777281341 | 8.33° C | 92% | 1021.3 hPa | 0 mm | - | - | - |
| 1777280432 | 8.89° C | 93% | 1021.2 hPa | 0 mm | - | - | - |
| 1777279535 | 9.44° C | 92% | 1021.2 hPa | 0 mm | - | - | - |
| 1777278631 | 9.44° C | 93% | 1020.8 hPa | 0 mm | - | - | - |
| 1777277732 | 9.44° C | 92% | 1020.8 hPa | 0 mm | - | - | - |
| 1777276829 | 9.44° C | 92% | 1020.6 hPa | 0 mm | - | - | - |
| 1777275927 | 9.44° C | 91% | 1020.8 hPa | 0 mm | - | - | - |
| 1777275027 | 10° C | 92% | 1020.9 hPa | 0 mm | - | - | - |
| 1777274127 | 10° C | 92% | 1021 hPa | 0 mm | - | - | - |
| 1777273225 | 10° C | 92% | 1020.9 hPa | 0 mm | - | - | - |
| 1777272324 | 9.44° C | 93% | 1021 hPa | 0 mm | - | - | - |
* Rain latest hour (hover to see other rain measurements)
** Current wind speed in m/s (hover to see current wind gust speed)